Location: Novo Boa Vista
(19.8804°S, 44.0498°W)
Time: 14:33:55
(UTC+00:00)

Daily predictions for brighter satellites

Satellite Brightness Start Highest point End
(mag) Time Altitude Azimuth Time Altitude Azimuth Time Altitude Azimuth
Cosmos 1655 Rocket 4.4 21:13:37 10° N 21:19:48 71° W 21:26:03 10° S
YAOGAN 1 4.0 21:19:00 10° ESE 21:21:48 17° E 21:24:35 10° NE
FALCON 9 R/B 3.2 21:08:15 10° NW 21:23:07 55° NNE 21:27:38 10° ESE
Cosmos 1269 Rocket 4.2 21:18:32 10° SSW 21:23:51 81° WNW 21:29:06 10° N
S3M 4.1 21:17:58 10° S 21:24:08 61° E 21:30:20 10° NNE
Meteor 1-21 4.2 21:18:49 10° N 21:24:30 75° E 21:30:11 10° S
Cosmos 1455 Rocket 3.6 21:20:29 10° SSE 21:24:32 36° E 21:28:31 10° NNE
GP-B 3.9 21:20:44 10° S 21:25:09 57° W 21:29:29 10° NNW
Cosmos 1025 Rocket 3.4 21:21:42 10° NNE 21:25:44 41° E 21:29:47 10° SSE
NOAA 12 4.3 21:23:57 10° S 21:29:19 84° WSW 21:34:39 10° NNW
Cosmos 1733 3.5 21:26:35 10° S 21:30:18 44° E 21:33:56 10° NNE
Cosmos 1707 3.5 21:27:10 10° NNE 21:30:40 32° E 21:34:12 10° SSE
Meteor 1-22 Rocket 4.2 21:25:22 10° S 21:31:04 61° E 21:36:27 10° NNE
GPS 2-12 Rocket1 3.1 21:28:15 10° W 21:33:00 89° NNE 21:37:12 13° E
BREEZE-M DEB (TANK) 3.6 21:25:16 10° NNW 21:36:08 50° NE 21:39:25 11° ESE
Envisat 3.7 21:32:20 10° S 21:37:21 59° WSW 21:42:20 10° NNW
SL-4 R/B 2.2 21:36:38 10° SW 21:40:24 60° NW 21:43:54 10° NNE
Cosmos 1766 3.5 21:36:37 10° S 21:40:37 76° W 21:44:34 10° N
CZ-2D R/B 4.2 21:38:33 10° SE 21:41:51 26° E 21:45:07 10° NNE
Cosmos 1271 Rocket 4.1 21:42:38 10° NE 21:45:13 18° E 21:46:07 17° ESE
CZ-2C R/B 3.8 21:44:35 13° ENE 21:47:40 20° ESE 21:51:30 10° SSE
ATLAS 5 CENTAUR R/B 3.6 21:46:36 10° SE 21:48:04 11° SE 21:48:09 11° SE
Cosmos 1544 Rocket 3.5 21:47:30 10° S 21:51:49 60° E 21:56:05 10° NNE
Cosmos 2098 Rocket 3.9 21:49:15 10° N 21:54:38 61° E 22:01:19 10° SSE
Cosmos 1943 3.8 21:50:01 10° S 21:55:06 35° ESE 21:59:21 14° NE
Cosmos 883 Rocket 4.4 21:49:25 10° S 21:55:32 65° E 22:01:36 10° NNE
GPS 2-04 Rocket1 3.6 21:54:31 10° SW 21:58:14 34° SSE 21:59:49 25° ESE
Orbus 7S 4.5 21:58:01 10° SW 22:00:09 19° S 22:01:05 16° SSE
Cosmos 2056 Rocket 3.5 21:55:56 10° N 22:00:54 57° ENE 22:05:59 10° SSE
Nadezhda 2 Rocket 4.3 21:56:44 10° N 22:02:49 75° E 22:08:57 10° S
GPS 2-18 Rocket1 4.0 22:00:09 10° W 22:03:49 41° NNW 22:05:45 23° NE
Lacrosse 4 Rocket 3.2 22:04:00 10° NNE 22:05:23 16° NE 22:05:23 16° NE
SWIFT 2.3 22:05:43 10° WNW 22:09:59 80° N 22:11:30 39° E
Meteor 2-14 Rocket 4.5 22:05:57 10° NNE 22:11:49 53° E 22:17:45 10° SSE
SL-24 R/B 3.6 22:15:06 43° NE 22:15:57 56° ESE 22:19:37 10° S
In-Cosmos 22 4.0 22:11:15 10° N 22:16:37 70° E 22:21:55 10° SSE
CZ-2C R/B 3.6 22:12:09 10° NNE 22:16:44 86° E 22:21:18 10° S
CSL-04 Rocket 3.6 22:11:23 10° SSE 22:16:51 65° ENE 22:22:11 10° N
Cosmos 1818 3.4 22:12:11 10° SSW 22:17:35 74° ESE 22:21:19 20° NNE
Delta 2 Rocket 4.4 22:11:49 10° WSW 22:17:37 48° S 22:20:27 29° ESE
NOAA 11 4.3 22:15:16 10° S 22:20:44 74° WSW 22:26:07 10° NNW
Meteor 2-21 4.3 22:15:17 10° N 22:21:21 75° E 22:27:33 10° S
Meteor 2-21 Rocket 4.4 22:18:11 10° N 22:24:07 57° E 22:30:11 10° SSE
STARLINK-60 3.3 22:24:08 10° SW 22:27:24 62° WNW 22:27:24 62° WNW
Cosmos 2315 Rocket 4.0 22:21:39 10° S 22:27:54 81° W 22:34:09 10° N
CZ-4 R/B 2.8 22:24:32 10° S 22:28:24 39° WSW 22:32:07 10° NW
Hubble Space Telescope 3.2 22:26:09 10° WNW 22:28:41 16° NNW 22:30:37 12° N
Cosmos 1603 3.9 22:26:32 10° SSW 22:32:17 71° WNW 22:37:55 10° N
USA 81 4.0 22:28:23 10° NNE 22:33:33 59° E 22:38:46 10° SSE
Centaur AC-69 4.4 22:32:16 10° WNW 22:33:11 17° NW 22:33:11 17° NW
Cosmos 1745 Rocket 3.9 22:30:41 10° N 22:36:42 58° E 22:42:45 10° SSE
Skynet4D Del rocket 3.4 22:32:40 10° WSW 22:38:04 67° SSE 22:38:42 61° ESE
Palapa 6 Rocket 3.2 22:35:19 10° W 22:41:00 74° S 22:41:21 70° SSE
Cosmos 1844 Rocket 3.5 22:36:20 10° NW 22:41:44 49° WSW 22:47:10 10° S
IUS-9 SRM-1 4.1 22:18:45 10° W 22:43:10 57° SSW 22:45:16 40° SE
Cosmos 1470 4.1 22:40:36 10° SSW 22:44:15 38° W 22:47:51 10° NNW
IUS-7 SRM-1 4.1 22:56:18 10° WNW 22:59:58 83° NNE 23:01:06 65° E
MOS 1 Rocket 3.9 22:59:22 45° NNW 23:00:55 66° W 23:06:15 10° SSW
Intelsat 5-1 Rocket 4.1 23:02:10 10° NW 23:04:13 28° NNW 23:04:13 28° NNW
Lacrosse 5 3.8 23:16:06 10° NW 23:17:59 23° NW 23:17:59 23° NW
CZ-2C R/B 4.3 23:26:06 26° NW 23:27:38 30° W 23:32:17 10° SW
ATLAS 5 CENTAUR R/B 4.2 23:28:40 10° SW 23:29:44 16° SW 23:29:44 16° SW
